Tracking 30918 objects as of 2-Jul-2025
HD Live streaming from Space Station
objects crossing your sky now

STARLINK-2491

Track STARLINK-2491 now!
10-day predictions
STARLINK-2491 is classified as:


NORAD ID: 48148
Int'l Code: 2021-027BJ
Perigee: 553.7 km
Apogee: 555.0 km
Inclination: 53.1 °
Period: 95.6 minutes
Semi major axis: 6925 km
RCS: Unknown
Launch date: April 7, 2021
Source: United States (US)
Launch site: AIR FORCE EASTERN TEST RANGE (AFETR)
Your satellite tracking list
AMC-9 (GE-12)
Track 1 satellite(s)




NASA's NSSDC Master Catalog

Two Line Element Set (TLE):
1 48148U 21027BJ  25182.82102831  .00000697  00000-0  65658-4 0  9996
2 48148  53.0549 217.8135 0000996  83.2315 276.8788 15.06398734234591
Source of the keplerian elements: AFSPC